BREEZE-M DEB (TANK), 36794

Orbit data source: Space-Track

BREEZE-M DEB (TANK), 36794 is space debris in HEO originally from a launch on Sat, 10 Jul 2010 UTC launched from the Tyuratam Missile And Space Complex (TTMTR). Debris objects in space refer to the collection of defunct objects orbiting the Earth. Examples of debris include non-operational satellites, rocket bodies, and fragments generated from explosions, collisions, or faulty payload assembly.

Loading next visibility...
Identifier
36794, 2010-034C
Orbit
HEO
Last TLE update
2 days ago
Origin
Manufacturer
Khrunichev
Mission
Spacecraft
Bus & Motor
BRIZ TANK, Unknown motor
Mass
~1,000 kg wet, 1,000 kg dry
Launch date (UTC)
2010-07-10 (15 years ago)
Launch vehicle
Unknown
Launch site
Tyuratam Missile And Space Complex (TTMTR)
Object type
Payload
Rocket body
Debris
Shape & HBR
Torus, 4 m
Radar Cross Section
8.218 m², Large (>1 m²)

Expand to show TLE details & history

TLE from 2 days ago
0 BREEZE-M DEB (TANK)
1 36794U 10034C   25187.07351053  .00003678  00000-0  42640-3 0  9997
2 36794  49.4793 110.2394 5462528 276.5505  27.1057  4.89518909258560
Epoch: 2025-07-06T01:45Z
TLE epoch observation values (Epoch: 2025-07-06T01:45:51.309Z)
Latitude
0.0001°
Longitude
159.46713°
Altitude
3,310.853 km
Speed
7.422 km/s
True Right ascension
07h 20m 56s
True Declination
0° 00' 00"
Sunlit
Object was in daylight at epoch
Visualization orbit readout
Latitude
-21.26907°
Longitude
138.53892°
Altitude
1,405.904 km
Speed
8.675 km/s
Apparent Right ascension
06h 37m 19s
Apparent Declination
-30° 04' 44"
Sunlit
Object is in daylight
Visualization observer readout
Local Sidereal Time
19:37:05
Azimuth
55.725° ENE
Elevation
-74.334°
Doppler factor
1
Orbital elements
Apogee altitude
16,278.207 km
Perigee altitude
270.357 km
Semi-major axis
14,652.419 km
Eccentricity
0.54625
Inclination
49.4793°
RAAN
110.2394°
Arg. of periapsis
276.5505°
True anomaly
Unknown
Mean anomaly
27.1057°
Eccentric anomaly
Unknown
Mean motion
1.22371 °/min
Orbital period
294.19 mins
BSTAR
0.0004264
Loading maneuver chart data...
Loading SW <> Apogee altitude chart data...
Loading historical data...
Loading historical data...
Loading historical data...
Loading historical data...
Loading historical data...
Loading historical data...
Loading historical data...
Other satellites on launch #34 in the year 2010 (2010-07-10 UTC)

BREEZE-M DEB (TANK) Visibility forecast

Observer location: undefined°, undefined°

Span
Click to sort rows by Start time (UTC) header in descending order
Start Az.
Max El. time (UTC)
Max El. Az.
Max El.
End time (UTC)
End Az.
119 mins2025-07-08 17:33:31.448Z133.334° SE2025-07-08 18:01:31.448Z82.256° E25.376°2025-07-08 19:32:31.448Z47.009° ENE
216 mins2025-07-08 22:32:31.448Z244.688° WSW2025-07-08 23:31:31.448Z336.729° NNW44.555°2025-07-09 02:08:31.448Z96.253° ESE
188 mins2025-07-09 04:14:31.448Z303.485° NW2025-07-09 06:37:31.448Z258.667° W39.731°2025-07-09 07:22:31.448Z184.234° SSW
|